Location: Davayat
(45.9471°N, 3.1105°E)
Time: 18:29:19
(UTC+00:00)

YAOGAN 1 - Pass Details

Date: 01 December 2020
Orbit: 618 x 620 km, 97.9° (Epoch: 23 January)

Event Time Altitude Azimuth Distance (km) Brightness Sun altitude
Rises 18:38:38 0° 173° (S) 2,883 6.0 -26.1°
Enters shadow 18:38:55 - 174° (S) 2,761 5.9 -26.2°
Exits shadow 18:46:25 41° 321° (NW) 902 3.5 -27.5°
Drops below altitude 10° 18:49:25 10° 341° (NNW) 1,999 5.3 -28.0°
Sets 18:51:38 0° 344° (NNW) 2,910 6.2 -28.4°
